Weather in Zubarevo

Russia / Yaroslavl Oblast     58°29′20″N   38°58′31″E
temp.,
°C
wind,
m/s
gust,
m/s
humid.,
%
clouds,
%
prec.,
mm/h
press.,
hPa
HPBL,
m
12 april, mon
mon1200:00+3s1198100 0.1 103310
03:00+4ese3597100 0.3 103468
06:00+5ese4898100 0.1 1034158
09:00+6sse378969 0.2 1035203
12:00+10sse47776 0.0 1034393
15:00+12se4875100 0.0 1034661
18:00+10se4978100 0.0 1032419
21:00+8se51385100 0.0 1031478
13 april, tue
tue1300:00+7se4118999 0.0 1030436
03:00+6se4993100 0.0 1029296
06:00+5se4997100 0.0 1028224
09:00+8sse4788100 0.0 1026268
12:00+12s4872100 0.0 1025443
15:00+14s3866100 0.0 1024743
18:00+12s3774100 0.0 1023138
21:00+9sse3884100 0.0 1023115
14 april, wed
wed1400:00+8s3108480 0.0 1023161
03:00+7s358367 0.0 102380
06:00+7sse36835 0.0 102287
09:00+11s396876 0.0 1021269
12:00+14s4956100 0.0 1020490
15:00+15s3854100 0.0 1019824
18:00+12s3962100 0.0 1018181
21:00+9s39747 0.0 1019137
15 april, thu
thu1500:00+6sw1186100 0.0 101913
03:00+6n2495100 0.0 102071
06:00+7ne3698100 0.0 1020232
09:00+7ne3691100 0.0 1020296
12:00+9ne3581100 0.0 1020468
15:00+9nne5680100 0.0 1020502
18:00+7nne4986100 0.0 1021329
21:00+5ne4991100 0.6 1020300
16 april, fri
fri1600:00+4ne4994100 1.4 1021369
03:00+4ne41093100 2.4 1021519
06:00+4nne4108799 0.9 1023525
09:00+5ne59663 0.9 1024667
12:00+7nne58510 0.0 10251030
15:00+8nne58455 0.0 10261288
18:00+7nne49540 0.0 10271128
21:00+4nne410660 0.0 1029528